Probability
0 0 0 0 0 0 0 0 0 0 0 0 0 0 0 0 0 0 0 0 0 0 0 0 0 0 0 0 0 0 0 0 0 0 0 1 3 4
0 0 0 0 0 0 0 0 0 0 0 0 0 0 0 0 0 0 0 0 0 0 0 0 0 0 0 0 0 0 0 0 0 0 0 0 1 2
0 0 0 0 0 0 0 0 0 0 0 0 0 0 0 0 0 0 0 0 0 0 0 0 0 0 0 0 0 0 0 0 0 0 0 0 0 1
0 0 0 0 0 0 0 0 0 0 0 0 0 0 0 0 0 0 0 0 0 0 0 0 0 0 0 0 0 0 0 0 0 0 0 0 0 0
0 0 0 0 1 1 1 1 0 0 0 0 0 0 0 0 0 0 0 0 0 0 0 0 0 0 0 0 0 0 0 0 0 0 0 0 0 0
1 1 1 1 1 2 2 2 1 1 0 0 0 0 0 0 0 0 0 0 0 0 0 0 0 0 0 0 0 0 0 0 0 0 0 0 0 0
2 2 2 1 1 2 2 2 2 2 1 1 0 0 0 0 0 0 0 0 0 0 0 0 0 0 0 0 0 0 0 0 0 0 0 0 0 0
6 6 4 2 1 1 1 1 1 2 2 2 1 1 1 0 0 0 0 0 0 0 0 0 0 0 0 0 0 0 0 0 0 0 0 0 0 0
14 14 12 6 4 4 4 3 3 2 1 2 2 2 2 1 1 0 0 0 0 0 0 0 0 0 0 0 0 0 0 0 0 0 0 0 0 0
16 20 21 16 10 7 8 8 8 6 2 1 1 2 2 2 1 0 0 0 0 0 0 0 0 0 0 0 0 0 0 0 0 0 0 0 0 0
17 19 20 16 10 6 8 13 15 12 5 1 0 1 1 1 1 0 0 0 0 0 0 0 0 0 0 0 0 0 0 0 0 0 0 0 0 0
19 16 11 8 4 2 5 11 15 13 9 5 3 3 2 2 1 1 0 0 0 0 0 0 0 0 0 0 0 0 0 0 0 0 0 0 0 0
13 12 8 3 0 0 2 6 8 8 8 8 7 8 8 6 5 4 2 2 1 0 0 0 0 0 0 0 0 0 0 1 0 0 0 0 0 0
5 6 6 2 0 0 0 1 1 2 3 6 7 9 11 12 14 14 13 9 5 1 0 0 0 0 0 0 0 0 1 1 0 0 1 1 0 0
1 2 2 1 0 0 0 0 0 1 1 3 5 7 11 17 22 25 22 16 8 2 0 0 0 0 0 0 0 0 1 1 1 1 2 2 1 0
0 0 0 0 0 1 1 2 2 2 2 3 5 8 13 18 22 25 22 14 6 2 0 0 0 0 0 0 0 0 1 1 1 1 2 2 1 1
0 0 0 0 1 2 4 4 5 5 4 4 7 11 14 15 17 21 20 10 3 2 0 0 1 1 0 0 0 0 0 0 0 1 1 1 1 0
0 0 0 0 1 3 4 5 6 7 7 8 10 12 13 12 14 19 19 13 6 3 1 1 2 2 0 0 0 0 0 0 0 0 0 0 0 0
0 0 0 0 1 3 4 4 4 6 8 10 10 10 10 10 11 14 16 14 10 6 3 2 1 1 0 0 0 0 0 0 0 0 0 0 0 0
0 0 0 0 1 1 2 2 2 4 6 7 7 7 7 7 8 10 11 10 9 7 5 3 2 1 0 1 0 0 0 0 0 0 0 0 0 0
0 0 0 0 0 0 0 1 1 2 3 2 3 4 4 4 5 6 5 4 4 4 4 4 4 2 1 2 1 0 0 0 0 1 0 0 0 0
0 0 0 0 0 0 0 0 0 1 1 0 1 2 3 2 2 2 2 1 1 2 2 3 4 2 2 2 1 0 0 0 0 0 0 0 0 0
0 0 0 0 0 0 0 0 0 0 0 0 0 1 2 2 1 0 0 1 2 2 1 2 3 2 1 1 0 0 0 0 0 0 0 0 0 0
Wind_Speed
6 6 6 4 4 4 4 5 6 7 4 2 3 2 3 4 2 6 6 1 3 5 6 6 6 6 7 7 7 8 9 11 12 13 15 16 17 19
5 5 6 6 4 5 5 5 5 7 7 4 3 5 4 7 4 6 8 5 9 8 7 7 7 8 8 8 9 9 9 10 12 13 14 15 16 17
8 8 8 8 6 6 6 6 6 7 8 7 6 5 5 8 7 7 8 8 8 10 8 7 8 8 9 9 10 11 11 11 12 12 13 14 15 16
10 9 9 8 9 8 7 8 7 7 8 10 8 7 7 7 8 9 9 8 8 6 9 9 10 10 10 10 11 11 11 12 12 12 13 14 15 16
11 10 10 10 10 9 9 9 8 8 8 9 9 7 7 7 8 9 10 8 10 8 10 13 13 13 12 12 12 12 12 12 12 13 13 13 14 15
12 12 12 12 12 11 10 10 10 9 9 10 10 9 8 8 7 8 9 8 8 8 7 7 10 13 14 14 14 13 13 12 12 12 13 13 13 14
13 13 14 13 12 11 10 10 10 10 10 10 10 9 8 7 7 7 8 7 8 8 8 9 9 10 11 15 17 15 14 13 12 13 13 14 14 14
14 14 14 14 15 16 16 14 13 13 13 11 10 10 10 9 8 8 9 9 9 7 7 8 8 9 9 10 8 11 13 12 13 13 14 14 15 15
14 13 13 13 15 15 17 20 20 20 18 15 15 14 12 10 10 11 10 10 10 8 8 10 10 10 10 9 8 10 11 13 14 14 14 14 15 15
16 16 15 15 15 15 15 16 17 18 19 18 17 16 15 12 11 11 12 12 12 11 11 12 11 11 10 10 10 14 15 15 15 15 15 15 15 15
17 17 17 17 16 15 16 17 17 16 16 17 18 16 14 11 10 10 11 11 12 11 10 11 11 11 11 11 10 14 16 16 16 16 15 15 15 14
13 15 17 18 17 15 17 17 18 17 16 14 16 17 17 17 16 16 14 13 13 12 10 9 11 10 11 10 9 8 10 14 17 17 16 16 14 11
12 12 12 14 18 18 17 17 18 15 14 15 14 14 15 14 15 16 16 14 14 13 10 9 10 10 11 10 9 9 9 9 10 12 16 17 16 14
12 12 12 9 10 14 15 17 18 15 13 14 14 14 14 13 13 15 16 16 15 15 13 11 11 11 12 12 11 10 9 9 10 10 10 11 15 17
11 14 15 15 12 12 17 18 16 14 14 15 16 15 14 13 12 11 13 14 16 16 15 16 15 13 13 13 13 11 11 10 10 10 10 10 10 10
11 12 15 17 16 16 14 14 14 14 14 15 15 14 13 12 12 12 12 12 13 14 16 17 16 16 14 15 13 13 12 11 10 10 10 10 10 11
13 12 13 13 13 12 12 13 13 13 14 15 14 14 13 13 13 12 12 12 13 13 12 12 15 15 16 14 13 13 13 12 11 10 10 12 12 12
12 14 14 14 14 14 14 13 13 13 13 13 14 13 13 13 13 12 12 12 13 13 12 11 10 11 11 13 14 15 14 13 12 11 12 13 13 12
13 14 14 14 14 14 13 13 13 13 12 12 13 13 12 12 12 12 12 12 13 13 12 12 11 11 13 13 14 17 15 13 12 12 12 12 13 12
12 13 13 13 13 13 13 13 12 12 11 12 13 12 12 12 12 12 12 14 13 13 12 12 12 12 13 13 12 10 16 15 12 12 12 12 12 11
12 12 12 12 12 12 12 12 12 12 12 11 11 11 11 12 12 13 13 14 13 13 13 13 11 12 11 10 12 13 12 15 15 12 12 12 12 11
12 12 12 12 11 11 11 11 11 11 12 11 11 10 10 11 13 15 13 12 12 13 14 12 10 10 11 12 13 14 14 12 13 17 17 16 13 13
12 12 11 12 11 10 10 11 13 11 10 10 10 10 10 10 11 11 12 12 11 12 12 11 10 10 11 12 13 13 16 15 12 11 13 17 21 21
Wind_Direction
234 220 243 248 248 260 267 275 288 294 290 208 243 213 261 285 310 285 287 217 286 287 284 282 276 267 259 254 253 253 251 246 244 242 241 240 238 237
249 259 254 255 247 249 254 257 262 277 287 298 277 280 305 301 254 275 277 249 241 244 255 267 270 267 262 257 251 250 251 251 249 246 243 241 239 237
236 235 237 255 256 252 245 249 253 258 269 277 276 269 262 274 285 280 273 269 252 209 222 251 263 263 262 260 256 254 252 252 253 250 248 245 243 241
236 237 239 235 234 250 253 251 253 259 266 276 281 276 259 258 263 270 272 268 274 213 208 236 250 254 256 257 257 256 255 255 255 254 251 248 246 244
238 238 238 239 238 239 241 249 249 245 248 264 270 272 269 261 263 261 262 262 270 252 216 223 234 243 249 251 252 252 252 253 254 255 254 250 247 246
240 241 241 238 237 239 240 243 250 256 253 256 263 264 259 255 254 263 264 249 253 266 265 254 234 228 236 241 242 243 245 247 251 254 255 252 249 247
239 239 240 239 240 239 246 243 240 244 251 253 257 261 259 257 258 261 268 272 262 259 264 262 249 242 230 228 230 232 234 240 245 249 252 251 249 248
241 241 240 232 230 228 239 249 253 251 252 258 260 260 263 262 261 266 271 270 270 260 260 264 265 265 261 257 232 208 221 235 244 248 249 249 247 246
244 243 244 241 229 232 226 227 237 242 246 253 260 262 263 256 258 258 255 263 273 283 277 271 267 264 261 258 221 212 226 238 245 248 249 248 246 245
247 245 245 248 242 236 238 235 234 232 228 232 245 253 256 260 254 254 266 264 261 255 254 264 267 267 265 262 228 214 226 235 242 246 248 248 246 245
248 248 246 248 244 231 239 245 246 246 237 229 233 242 249 252 252 253 251 253 257 256 242 249 260 266 267 264 250 216 220 229 236 241 244 244 244 244
252 249 244 242 245 226 234 243 246 247 249 238 226 235 242 241 229 236 246 250 256 259 251 249 258 263 268 262 258 245 229 226 228 234 235 235 233 238
265 260 257 232 229 230 230 242 248 252 253 249 244 236 231 231 228 221 227 241 250 254 253 244 253 258 262 269 268 262 261 260 241 232 226 226 221 223
274 274 275 282 247 236 233 242 247 249 252 251 247 244 240 234 229 226 222 228 239 251 261 263 261 260 264 267 268 265 258 255 257 259 256 222 213 219
273 278 283 286 275 254 239 236 237 241 243 244 245 244 242 241 239 231 229 229 236 242 246 245 247 252 254 259 265 268 268 264 260 258 256 252 245 227
271 276 265 258 253 256 256 239 235 237 237 241 243 245 243 239 235 233 231 227 231 235 233 234 238 245 249 252 257 261 262 263 261 259 258 257 252 246
309 290 280 274 266 258 252 248 241 235 233 239 243 244 241 238 237 231 230 233 237 241 239 227 225 228 240 251 255 254 256 257 257 257 257 259 256 251
285 277 274 271 268 266 262 258 251 245 241 237 238 239 240 240 239 235 230 231 238 241 242 241 234 227 230 236 236 252 257 258 258 253 254 257 257 252
267 270 272 272 271 269 267 263 259 254 247 243 241 240 239 240 241 238 234 235 238 240 240 238 235 233 237 243 236 219 240 254 257 256 252 251 256 257
270 276 279 280 278 276 272 269 268 265 255 247 243 241 238 237 238 239 237 236 236 238 240 238 236 235 239 250 262 251 218 239 251 255 258 256 255 256
292 289 287 285 282 279 277 276 272 266 260 253 245 241 239 238 238 238 238 236 237 240 240 239 238 236 243 250 255 257 248 222 235 251 259 262 261 258
298 294 291 288 287 284 279 274 270 265 260 253 247 241 239 238 238 239 238 236 234 237 242 244 238 230 234 240 247 256 260 256 232 231 242 252 260 261
303 301 295 291 286 283 279 275 271 268 265 259 251 245 241 239 237 237 237 239 239 240 241 243 240 234 236 241 248 254 259 260 258 251 242 228 229 244